Presure
224 199 174 159 201 205 216 229 248 260 282 260 268 242 228 242 201 206 227 219 216 227 218 216 217 221 214 194 201 204 205 216
200 142 200 151 210 214 223 241 240 245 233 289 260 242 232 238 228 220 222 221 138 214 217 225 226 228 217 216 202 201 261 207
235 212 211 212 211 199 205 246 198 247 240 224 249 235 236 249 228 215 234 221 197 226 209 223 227 225 222 211 211 261 254 245
203 219 197 201 217 201 187 217 221 216 254 329 255 245 238 242 236 212 210 219 223 227 204 238 230 236 222 223 216 268 251 252
199 220 207 200 216 210 187 158 183 219 246 328 269 237 223 242 224 220 254 214 204 219 230 235 229 215 207 206 268 238 223 237
193 207 202 197 207 130 215 188 177 235 269 315 265 239 202 200 225 212 250 240 229 227 228 203 213 199 212 265 228 249 241 244
208 205 208 194 198 204 193 210 204 129 265 307 248 236 228 204 196 219 232 252 218 216 228 230 201 210 210 227 198 220 188 208
181 202 193 209 204 190 207 208 222 230 265 299 199 228 225 202 198 205 224 240 236 229 223 201 198 206 205 184 191 187 179 176
191 204 214 212 219 184 166 176 237 230 279 100 248 226 215 232 202 225 209 228 234 219 201 192 201 207 180 190 173 174 179 214
202 192 199 204 217 204 169 221 240 229 280 296 251 228 217 220 207 216 222 226 204 198 221 185 189 187 170 174 191 177 175 185
210 210 203 195 213 197 213 220 225 253 287 278 249 226 218 185 248 213 230 221 205 210 202 176 186 171 172 181 174 175 180 218
199 204 202 188 215 202 161 185 230 254 281 237 242 224 218 206 229 203 244 221 192 194 178 181 169 181 170 173 173 176 225 177
204 189 205 206 157 206 201 225 229 266 273 253 229 225 207 216 227 225 249 219 192 184 182 171 171 181 174 175 168 167 181 167
202 192 203 159 210 180 227 219 232 269 273 252 226 224 208 247 212 229 248 204 204 210 174 175 171 171 169 168 176 180 180 182
190 219 206 191 186 194 172 217 229 275 282 245 223 220 208 200 215 230 212 194 198 204 171 180 169 171 180 168 169 164 185 179
211 216 192 219 214 152 242 225 252 270 291 240 222 217 208 222 238 229 207 194 202 183 182 173 170 182 172 174 168 162 176 173
204 210 199 224 155 224 229 187 254 271 353 233 221 212 210 217 212 228 202 189 193 186 169 172 177 172 171 165 166 170 159 167
198 194 206 226 221 218 242 215 253 324 283 228 216 207 198 213 215 229 202 201 182 173 180 177 175 178 174 183 176 170 171 186
198 202 214 224 194 221 215 218 255 319 250 223 216 179 203 215 201 202 216 194 192 183 179 180 166 169 167 173 179 169 177 180
98 201 210 226 222 225 178 250 267 233 240 220 212 199 192 204 196 212 247 215 189 187 185 180 175 176 173 169 187 178 183 185
Wind_Speed
43 63 65 67 72 50 50 51 42 44 38 37 37 43 51 43 45 67 61 68 76 66 74 73 70 60 60 70 64 63 60 59
51 58 59 58 57 58 58 48 49 45 42 37 37 43 46 43 49 56 60 67 45 68 73 68 58 51 56 50 59 63 48 61
54 46 48 47 55 68 66 50 53 50 42 37 37 42 43 37 49 59 63 60 67 65 64 65 58 48 44 48 52 43 48 47
44 51 55 56 49 65 60 57 48 45 45 36 33 36 38 35 42 57 60 59 56 62 64 62 44 51 45 35 36 41 43 39
57 57 48 48 50 56 45 31 43 45 49 35 30 32 32 32 38 49 55 53 54 54 54 56 50 35 35 37 39 36 35 34
54 55 58 49 51 33 57 67 47 49 40 35 31 33 36 36 35 44 40 50 56 49 51 37 32 36 33 26 28 26 30 31
61 64 62 57 62 53 49 61 45 39 41 35 33 32 30 37 42 38 34 37 46 41 42 44 27 27 33 26 22 22 26 21
59 63 60 53 46 47 56 46 57 52 43 34 37 33 32 39 42 38 27 27 41 40 33 30 25 24 20 27 23 26 35 41
59 64 64 60 65 73 26 52 55 52 38 43 37 35 32 33 39 32 29 26 32 35 32 31 23 24 29 25 37 34 28 21
59 53 57 53 61 55 35 47 57 49 37 32 38 37 32 32 35 34 28 31 34 33 32 34 31 30 43 38 20 31 33 21
56 63 55 55 59 61 53 46 49 48 39 32 37 39 34 37 36 32 32 33 40 34 34 42 26 37 38 29 33 30 23 23
58 64 60 63 66 58 40 55 51 46 37 36 38 38 34 33 37 35 35 39 43 41 40 32 40 30 35 34 33 29 19 21
60 57 65 64 27 59 60 49 48 45 34 37 40 38 32 35 35 30 39 43 45 45 40 41 36 30 35 33 37 34 21 32
62 58 65 36 66 41 55 49 46 44 35 39 42 36 30 31 33 33 42 49 43 41 41 41 40 38 38 33 29 26 24 20
61 63 66 53 48 57 31 46 45 40 35 41 41 36 30 31 33 35 46 48 46 47 43 46 42 40 36 37 35 38 24 25
61 61 56 66 66 42 54 48 48 36 35 42 40 33 27 28 34 40 48 47 48 51 49 46 44 41 40 37 39 41 36 35
62 62 58 66 52 56 50 41 44 35 36 42 39 32 27 24 34 45 49 47 51 55 43 48 48 44 42 42 41 43 44 45
64 61 62 65 63 53 53 43 38 35 36 43 39 32 29 25 33 44 52 55 51 48 51 51 49 44 43 43 46 43 45 41
68 67 65 61 54 54 49 41 34 34 38 42 37 30 28 27 34 37 55 56 58 57 53 54 43 44 43 43 47 48 42 44
34 57 59 62 61 53 29 46 37 36 43 44 38 36 35 27 34 35 45 64 56 59 58 54 52 49 48 43 48 43 41 44
Wind_Direction
291 281 281 281 285 297 302 296 296 290 293 267 255 253 253 235 241 255 230 237 252 244 258 264 270 264 265 263 264 263 260 260
279 272 283 273 290 298 302 307 300 295 287 269 257 251 248 235 231 244 239 242 255 256 259 262 262 259 268 269 262 262 261 261
299 288 287 291 297 290 294 313 292 301 291 281 257 254 253 235 238 243 228 242 266 252 261 263 268 263 266 264 262 269 258 253
284 293 280 282 303 288 290 302 302 294 296 281 253 248 257 253 241 247 252 246 246 245 261 260 268 263 272 264 256 253 252 247
287 294 287 283 303 293 296 278 287 302 290 284 250 248 255 252 242 240 235 247 254 247 256 256 262 260 247 251 259 259 252 249
279 295 287 282 302 277 303 296 300 295 300 288 243 237 251 254 248 244 243 237 237 246 249 237 255 247 258 261 253 241 241 247
290 290 287 285 297 291 300 301 299 278 294 287 235 236 239 249 256 248 247 240 238 240 246 256 234 241 252 250 245 239 243 241
273 284 280 297 286 284 299 308 298 294 294 277 241 241 234 247 254 250 245 242 235 238 234 227 233 233 231 242 235 239 245 252
280 286 293 295 293 283 279 293 300 296 296 264 233 241 239 241 245 237 239 221 228 223 204 221 221 212 238 234 247 245 249 233
285 279 282 285 295 288 276 300 302 293 292 266 231 237 235 237 247 238 231 217 212 207 221 220 224 219 248 248 255 247 255 254
291 289 293 274 291 278 300 294 293 299 294 257 229 235 232 252 236 232 232 214 203 209 195 236 218 234 245 250 250 256 255 207
282 285 284 270 291 282 259 292 293 298 285 251 227 236 230 232 237 235 225 206 204 197 227 210 237 222 243 253 259 262 183 252
281 277 286 286 251 287 290 282 286 296 271 236 231 233 233 236 235 237 228 200 200 209 210 228 229 225 232 244 258 264 232 265
280 278 283 261 289 286 290 278 286 296 264 231 232 233 230 237 226 235 227 194 197 206 218 216 229 232 236 244 247 246 239 247
275 282 281 277 278 279 289 279 281 292 251 228 233 231 230 227 226 226 200 204 193 201 223 218 232 235 233 239 246 257 230 232
278 278 275 281 281 258 288 273 289 283 243 225 231 230 226 234 236 216 201 203 201 204 213 224 233 233 234 231 242 253 236 238
276 277 274 280 256 280 280 273 287 278 238 221 224 226 227 227 220 207 204 212 198 206 228 230 229 234 236 243 242 245 259 250
272 271 277 275 274 276 277 267 282 274 229 219 225 222 221 219 218 210 206 204 213 225 219 227 232 233 239 234 240 242 246 254
268 271 277 272 262 271 269 271 278 258 220 219 221 229 220 225 218 213 210 214 212 218 222 226 237 238 241 240 244 249 253 258
257 268 271 268 266 268 247 274 278 234 216 219 221 223 217 224 221 220 222 214 216 219 222 226 231 237 243 248 245 249 256 265